Location: GMARS
(34.2910°N, 116.3838°W)
Time: 09:32:52
(UTC-07:00)

Daily predictions for brighter satellites

Satellite Brightness Start Highest point End
(mag) Time Altitude Azimuth Time Altitude Azimuth Time Altitude Azimuth
Cosmos 1544 Rocket 3.7 20:11:36 10° N 20:15:55 77° W 20:20:13 10° S
CZ-2D R/B 3.2 20:12:12 10° SSE 20:16:00 71° ENE 20:19:48 10° N
Cosmos 1666 3.8 20:13:50 10° NNE 20:16:59 26° ENE 20:20:09 10° SE
Meteor 1-13 Rocket 4.4 20:12:02 10° S 20:17:54 67° E 20:23:44 10° NNE
H-2A R/B 3.4 20:15:34 10° S 20:19:11 56° W 20:22:49 10° NNW
Cosmos 1975 3.1 20:15:53 10° N 20:19:58 74° W 20:24:01 10° S
ISS -1.0 20:17:51 10° W 20:20:31 22° NW 20:23:10 10° NNE
Cosmos 1656 Rocket 3.7 20:18:58 10° NNW 20:24:27 84° ENE 20:29:59 10° SSE
Cosmos 1238 Rocket 4.5 20:21:23 10° SSE 20:27:43 45° E 20:33:49 10° NNE
OAO 2 Rocket 3.3 20:23:02 10° W 20:27:58 84° N 20:32:56 10° E
Cosmos 1833 Rocket 4.3 20:25:15 10° SE 20:28:11 15° E 20:31:08 10° ENE
CENTAUR R/B 3.3 20:22:12 10° NNW 20:30:19 87° WSW 20:38:47 10° SSE
Resurs 1-3 3.8 20:27:36 10° S 20:31:58 75° WSW 20:36:21 10° NNW
Meteor 1-29 3.3 20:34:51 10° NNE 20:38:03 41° E 20:41:14 10° S
Cosmos 1455 Rocket 4.2 20:36:22 10° NNW 20:40:30 45° W 20:44:37 10° SSW
Cosmos 1939 Rocket 3.2 20:37:40 10° SE 20:41:14 43° ENE 20:44:54 10° N
Cosmos 2074 Rocket 4.0 20:36:21 10° N 20:42:37 72° E 20:48:51 10° SSE
Cosmos 1437 Rocket 4.3 20:39:56 10° NNE 20:42:49 20° ENE 20:44:48 14° ESE
Aureole 3 Rocket 3.6 20:37:40 10° S 20:44:07 90° W 20:48:40 10° N
ASTEX 1 4.1 20:40:09 11° SE 20:44:26 36° ENE 20:48:52 10° NNE
PSLV R/B 3.7 20:43:55 10° WNW 20:46:57 48° NNE 20:49:21 15° E
Meteor 2-4 Rocket 3.7 20:41:47 10° S 20:47:24 81° E 20:53:13 10° N
Cosmos 2184 Rocket 4.0 20:42:00 10° N 20:48:21 77° E 20:54:35 10° S
GENESIS II 4.2 20:46:01 10° NNW 20:49:56 78° WSW 20:53:09 14° SSE
Cosmos 1943 Rocket 4.4 20:46:44 10° NW 20:50:51 22° W 20:54:58 10° SSW
Resurs 01 Rocket 3.0 20:46:47 10° SSW 20:50:54 38° W 20:55:02 10° NNW
Hubble Space Telescope 2.2 20:47:58 10° SSW 20:51:03 20° SSE 20:52:26 17° SE
CZ-4B DEB 4.5 20:49:48 10° SSE 20:53:19 89° WSW 20:56:52 10° NNW
Spot 1 4.1 20:49:43 10° SSE 20:54:07 73° ENE 20:58:23 10° N
Helios 1A 3.0 20:55:00 10° SSE 20:59:10 87° WSW 21:03:23 10° NNW
Intercosmos 24 4.1 21:01:00 10° N 21:04:26 41° E 21:06:09 24° SE
ARGOS 4.4 21:02:21 17° ESE 21:05:06 25° ENE 21:09:25 10° NNE
Cosmos 1441 Rocket 4.0 21:02:54 10° SSW 21:06:31 50° W 21:10:10 10° N
Tiangong 2 3.8 21:05:19 10° NW 21:07:34 18° N 21:09:49 10° NE
Nadezhda 1 Rocket 4.2 21:02:26 10° S 21:08:47 79° W 21:15:13 10° N
Cosmos 2228 4.5 21:08:43 10° NNE 21:11:53 20° ENE 21:12:42 19° E
Cosmos 921 Rocket 4.1 21:08:19 10° N 21:12:15 30° ENE 21:13:51 24° ESE
Cosmos 1624 Rocket 4.2 21:07:44 10° N 21:12:57 57° ENE 21:16:02 24° SE
Helios 1B rocket 3.7 21:13:05 10° N 21:16:59 42° WNW 21:20:53 10° SW
H-2A R/B 3.5 21:18:38 17° E 21:20:10 19° ENE 21:23:42 10° NNE
SAR-Lupe-4 4.4 21:20:05 16° S 21:22:40 47° W 21:26:09 10° NNW
Cosmos 1892 Rocket 3.5 21:26:07 24° S 21:28:45 71° E 21:33:09 10° NNE
Envisat 4.1 21:24:20 10° SSW 21:29:05 41° W 21:33:52 10° NNW
YAOGAN 6 2.8 21:28:48 29° S 21:30:23 63° W 21:33:51 10° NNW
Cosmos 2056 Rocket 3.4 21:27:29 10° NNW 21:32:38 81° ENE 21:35:02 32° SSE
Cosmos 2154 Rocket 4.0 21:26:26 10° N 21:32:49 88° W 21:37:23 20° S
Meteor 1-4 Rocket 4.5 21:30:44 10° NNE 21:32:35 17° ENE 21:32:35 17° ENE
CZ-4B DEB 4.5 21:33:17 17° SW 21:34:52 26° W 21:37:27 10° NW
Terra 3.8 21:34:23 13° ENE 21:35:03 13° ENE 21:37:13 10° NE
Okean 2 4.2 21:32:29 10° SSW 21:36:26 49° W 21:40:25 10° N
Cosmos 2082 Rocket 2.1 21:33:06 10° SSW 21:38:45 75° ESE 21:44:24 10° NNE
Cosmos 1606 Rocket 3.5 21:38:57 10° N 21:43:16 79° W 21:44:53 37° S
Cosmos 2278 3.7 21:39:19 10° NNW 21:45:00 69° ENE 21:47:06 39° SE
SPOT 5 2.7 21:46:34 48° ESE 21:47:19 55° ENE 21:51:35 10° N
COSMOS 2487 3.4 21:45:20 17° SW 21:47:48 48° WNW 21:51:17 10° N
SL-24 DEB 4.1 21:50:57 50° SSE 21:52:04 73° E 21:56:42 10° N
Cosmos 1726 Rocket 3.5 21:47:49 10° N 21:52:08 76° W 21:53:22 45° S
SL-08 RB Rocket 3.7 21:54:27 52° ESE 21:55:00 56° ENE 21:59:24 10° N
Cosmos 1656 3.7 21:53:11 10° NNW 21:58:37 61° ENE 21:59:56 47° ESE
Cosmos 1697 Rocket 3.2 21:54:52 10° N 22:00:13 43° ENE 22:01:23 38° E
ERS-1 Rocket 3.7 22:01:26 27° SSW 22:03:47 47° W 22:08:37 10° NNW
Cosmos 1452 Rocket 3.6 21:59:13 10° N 22:04:27 62° ENE 22:05:20 54° ESE
Cosmos 2369 3.7 21:59:54 10° NNW 22:05:38 80° WSW 22:07:20 47° S
MetOp-A 4.4 22:04:04 36° S 22:06:10 64° WSW 22:11:30 10° NNW
Cosmos 839 Rocket 4.5 22:01:43 10° NNW 22:08:34 81° WSW 22:12:06 38° SSE
Timation 2 Rocket 3.8 22:04:58 27° SSW 22:08:39 78° ESE 22:14:50 10° NNE
Cosmos 2341 Rocket 4.4 22:02:39 10° NNW 22:08:55 62° W 22:12:20 28° SSW
Cosmos 1833 Rocket 3.1 22:05:58 10° SSW 22:11:29 60° WNW 22:17:04 10° NNE
SPOT 1/Viking Rocket 3.4 22:10:46 60° SE 22:11:37 74° ENE 22:16:45 10° N
Cosmos 2058 Rocket 3.4 22:07:59 10° NNW 22:12:22 61° W 22:13:06 52° SW
OAO 2 Rocket 3.4 22:07:52 10° W 22:12:33 54° SSW 22:12:33 54° SSW
MOS 1-B Rocket 4.3 22:10:14 33° SSW 22:12:47 60° W 22:19:05 10° NNW
SL-24 R/B - RUBIN 2 4.5 22:13:47 37° S 22:16:33 69° ESE 22:23:07 10° NE
Cosmos 2218 Rocket 3.9 22:10:51 10° N 22:17:01 76° E 22:18:29 54° SSE
SL-19 R/B 4.5 22:18:50 10° NNE 22:23:19 47° ENE 22:23:19 47° ENE
H-2A R/B 3.1 22:25:55 38° NE 22:25:55 38° NE 22:29:32 10° N
Cosmos 1812 Rocket 4.2 22:27:07 10° N 22:30:39 47° NE 22:30:39 47° NE
Cosmos 1626 Rocket 4.0 22:35:57 55° WNW 22:35:57 55° WNW 22:40:03 10° N
Nadezhda 3 Rocket 4.1 22:38:29 57° E 22:38:41 57° E 22:44:53 10° NNE
Cosmos 158 Rocket 4.1 22:38:28 66° SW 22:39:07 75° WNW 22:44:30 10° NNE
Meteor 2-21 4.5 22:38:02 10° NNW 22:44:02 71° W 22:44:59 60° SSW
Tiangong 2 4.0 22:42:24 10° NW 22:43:45 18° NNW 22:43:45 18° NNW
ARGOS 4.2 22:43:52 32° SW 22:45:06 36° W 22:50:04 10° NNW
USA 229 DEB 4.0 22:38:36 10° NNW 22:45:41 59° NE 22:47:09 50° E
USA 229 4.0 22:38:42 10° NNW 22:45:47 58° NE 22:47:15 50° E
CZ-4 R/B 4.4 22:43:32 10° NNE 22:47:29 52° NE 22:47:29 52° NE
Cosmos 1953 4.4 22:45:09 10° NNE 22:46:52 21° NE 22:46:52 21° NE
Meteor 2-21 Rocket 4.3 22:42:53 10° N 22:48:57 81° W 22:49:30 73° SSW
Cosmos 1980 Rocket 2.2 22:43:53 10° NNW 22:49:22 68° ENE 22:49:22 68° ENE
CZ-4B R/B 4.0 22:51:11 10° NNE 22:55:10 52° NE 22:55:10 52° NE
Landsat 7 4.4 22:57:47 51° WNW 22:57:47 51° WNW 23:01:54 10° NNW
H-2A R/B 2.9 22:59:16 39° W 22:59:16 39° W 23:03:57 10° NNW
Cosmos 2322 Rocket 3.5 22:56:27 10° N 23:01:16 29° ENE 23:01:16 29° ENE
Lacrosse 5 rocket 3.9 23:07:27 10° N 23:10:28 17° NE 23:10:52 17° NE
Terra 2.7 23:13:16 46° NW 23:13:16 46° NW 23:16:56 10° NNW
CZ-2C R/B 4.4 23:13:31 10° NE 23:16:02 22° ENE 23:16:02 22° ENE
Lacrosse 5 3.1 23:43:44 39° N 23:43:44 39° N 23:47:20 10° NNE
SeaSat 1 4.2 23:50:22 25° NE 23:50:22 25° NE 23:53:40 10° N
CZ-2C R/B 4.2 23:55:09 42° NE 23:55:09 42° NE 23:59:20 10° N
ATLAS CENTAUR R/B 4.1 23:50:25 10° NNW 23:51:02 14° NNW 23:51:02 14° NNW
